(370517) = 2003 SJ240 = 2008 CP124

Discovered at Kitt Peak on 2003-09-27 by Spacewatch.

Orbit

Orbit type: Main Belt

Note: WebGL enabled browser required.

epoch2022-01-21.0
epoch JD2459600.5
perihelion date2021-02-22.48642
perihelion JD2459267.98642
argument of perihelion (°)151.34650
ascending node (°)276.03348
inclination (°)1.64061
eccentricity0.1715393
perihelion distance (AU)1.8724742
Tisserand w.r.t. Jupiter3.6
ΔV w.r.t. Earth (km/sec)8.5
semimajor axis (AU)2.2601848
mean anomaly (°)96.44890
mean daily motion (°/day)0.29006000
aphelion distance (AU)2.648
period (years)3.4
P-vector [x]0.38442241
P-vector [y]0.84142572
P-vector [z]0.37976595
Q-vector [x]-0.92271815
Q-vector [y]0.36290847
Q-vector [z]0.12995640
absolute magnitude18.77
phase slope0.15
uncertainty0
referenceMPO 698480
observations used154
oppositions9
arc length (days)6767
first opposition used2003
last opposition used2022
residual rms (arc-secs)0.80
perturbers coarse indicatorM-v
perturbers precise indicator003Ek
first observation date used2003-09-27.0
last observation date used2022-04-07.0
computer namePan
JD of orbit computation2456581.580081
perihelion JD uncertainty (days)1.0062E-04
argument of perihelion uncertainty (°)2.5815E-04
ascending node uncertainty (°)2.5579E-04
inclination uncertainty (°)5.4169E-06
eccentricity uncertainty 5.3610E-08
perihelion distance uncertainty (AU)1.1957E-07
Minimum Orbit Intersection Distances (in AU)
for orbit epoch: 2458200.5, reference: MPO434304
Mercury1.56227
Venus1.1502
Earth0.883899
Mars0.323535
Jupiter2.6397
Saturn7.11833
Uranus15.7797
Neptune27.5753

Observations

157 total observations over interval: 2003 09 27.31003 – 2022 04 07.473801
These data are available for download (format description).

